Tracy, MN

6:03 PM CST on February 23, 2017 (GMT -0600)
Tracy

Weather History for KTKC - October, 2012

Change the Weather History Date:

Tuesday, October 16, 2012

  Actual Average (KMML) Record (KMML)
Temperature  
Mean Temperature 60 °F -  
Max Temperature 74 °F 56 °F 89 °F (1958)
Min Temperature 47 °F 35 °F 26 °F (1952)
Degree Days  
Heating Degree Days 5    
Growing Degree Days 10 (Base 50)    
Moisture  
Dew Point 41 °F    
Average Humidity 50    
Maximum Humidity 77    
Minimum Humidity 31    
Precipitation  
Precipitation 0.00 in - - ()
Sea Level Pressure  
Sea Level Pressure 29.49 in    
Wind  
Wind Speed 9 mph (SW)    
Max Wind Speed 17 mph    
Max Gust Speed 25 mph    
Visibility 10 miles    
Events      
Averages and records for this station are not official NWS values.
T = Trace of Precipitation, MM = Missing Value Source: NWS Daily Summary

Daily Weather History Graph

Daily Weather History Graph

Search for Another Location

Airport or City:

Trip Planner

Search our weather history database for the weather conditions in past years. The results will help you decide how hot, cold, wet, or windy it might be!

Date:

Astronomy

Oct. 16, 2012 Rise Set
Actual Time 7:39 AM CDT 6:35 PM CDT
Civil Twilight 7:09 AM CDT 7:05 PM CDT
Nautical Twilight 6:36 AM CDT 7:38 PM CDT
Astronomical Twilight 6:02 AM CDT 8:12 PM CDT
Moon 9:08 AM CDT (10/16) 7:15 PM CDT (10/16)
Length of Visible Light 11h 55m
Length of Day
10h 56m
New Moon, 2% of the Moon is Illuminated
Oct 16
New Moon
Oct 21
First Quarter
Oct 29
Full
Nov 6
Last Quarter
Nov 13
New

Hourly Weather History & Observations

Time (CDT) Temp. Dew Point Humidity Pressure Visibility Wind Dir Wind Speed Gust Speed Precip Events Conditions
12:14 AM 57.4 °F 39.2 °F 51% 29.66 in 10.0 mi South 15.0 mph 21.9 mph N/A   Clear
12:34 AM 57.4 °F 39.4 °F 51% 29.65 in 10.0 mi South 16.1 mph 23.0 mph N/A   Clear
12:54 AM 57.2 °F 39.4 °F 51% 29.65 in 10.0 mi SSW 15.0 mph - N/A   Clear
1:14 AM 56.5 °F 39.4 °F 53% 29.64 in 10.0 mi South 16.1 mph 20.7 mph N/A   Clear
1:34 AM 56.3 °F 39.6 °F 53% 29.63 in 10.0 mi SSW 16.1 mph - N/A   Clear
1:54 AM 56.3 °F 39.7 °F 54% 29.63 in 10.0 mi SSW 15.0 mph 20.7 mph N/A   Clear
2:14 AM 55.9 °F 39.9 °F 55% 29.61 in 10.0 mi South 11.5 mph 19.6 mph N/A   Clear
2:34 AM 55.8 °F 40.1 °F 56% 29.61 in 10.0 mi SSW 12.7 mph - N/A   Clear
2:54 AM 55.6 °F 40.3 °F 56% 29.60 in 10.0 mi SSW 15.0 mph - N/A   Clear
3:14 AM 55.6 °F 40.6 °F 57% 29.59 in 10.0 mi SSW 13.8 mph 19.6 mph N/A   Clear
3:34 AM 55.6 °F 41.0 °F 58% 29.58 in 10.0 mi SSW 12.7 mph 19.6 mph N/A   Clear
3:54 AM 56.5 °F 41.7 °F 58% 29.57 in 10.0 mi SSW 17.3 mph 25.3 mph N/A   Clear
4:14 AM 57.2 °F 42.4 °F 58% 29.57 in 10.0 mi SSW 17.3 mph - N/A   Clear
4:34 AM 57.6 °F 43.0 °F 58% 29.57 in 10.0 mi SSW 12.7 mph 17.3 mph N/A   Clear
4:54 AM 57.2 °F 43.2 °F 59% 29.58 in 10.0 mi SW 9.2 mph 17.3 mph N/A   Clear
5:34 AM 52.2 °F 41.7 °F 68% 29.58 in 10.0 mi Calm Calm - N/A   Clear
5:54 AM 52.7 °F 42.1 °F 67% 29.57 in 10.0 mi Calm Calm - N/A   Clear
6:34 AM 50.7 °F 41.7 °F 71% 29.57 in 10.0 mi Calm Calm - N/A   Clear
7:14 AM 49.1 °F 41.2 °F 74% 29.56 in 10.0 mi Calm Calm - N/A   Scattered Clouds
7:54 AM 48.0 °F 41.0 °F 77% 29.55 in 10.0 mi Calm Calm - N/A   Clear
8:14 AM 47.3 °F 40.5 °F 77% 29.54 in 10.0 mi Calm Calm - N/A   Clear
8:34 AM 50.0 °F 41.9 °F 74% 29.55 in 10.0 mi Calm Calm - N/A   Clear
8:54 AM 48.9 °F 41.5 °F 76% 29.55 in 10.0 mi South 3.5 mph - N/A   Clear
9:14 AM 50.2 °F 42.1 °F 74% 29.54 in 10.0 mi Calm Calm - N/A   Clear
9:34 AM 52.0 °F 42.8 °F 71% 29.55 in 10.0 mi Calm Calm - N/A   Clear
9:54 AM 55.6 °F 42.1 °F 60% 29.54 in 10.0 mi Calm Calm - N/A   Clear
10:13 AM 56.3 °F 41.7 °F 58% 29.53 in 10.0 mi Calm Calm - N/A   Clear
10:34 AM 59.0 °F 41.9 °F 53% 29.53 in 10.0 mi Calm Calm - N/A   Clear
10:54 AM 62.4 °F 42.3 °F 48% 29.53 in 10.0 mi North 5.8 mph - N/A   Clear
11:14 AM 63.9 °F 42.1 °F 45% 29.53 in 10.0 mi NNW 6.9 mph - N/A   Clear
11:34 AM 65.3 °F 42.1 °F 43% 29.52 in 10.0 mi North 6.9 mph - N/A   Clear
11:54 AM 66.7 °F 42.3 °F 41% 29.50 in 10.0 mi North 8.1 mph - N/A   Clear
12:14 PM 68.5 °F 41.5 °F 37% 29.49 in 10.0 mi North 4.6 mph - N/A   Clear
12:33 PM 70.5 °F 41.7 °F 35% 29.48 in 10.0 mi NNW 5.8 mph - N/A   Clear
12:54 PM 71.6 °F 41.0 °F 33% 29.48 in 10.0 mi NW 8.1 mph - N/A   Clear
1:14 PM 72.1 °F 41.2 °F 33% 29.47 in 10.0 mi NNW 9.2 mph - N/A   Clear
1:34 PM 72.0 °F 41.0 °F 33% 29.46 in 10.0 mi WNW 8.1 mph - N/A   Clear
1:54 PM 72.7 °F 41.4 °F 32% 29.46 in 10.0 mi NNW 8.1 mph - N/A   Clear
2:14 PM 73.4 °F 41.9 °F 32% 29.45 in 10.0 mi NNW 9.2 mph - N/A   Clear
2:34 PM 73.4 °F 41.2 °F 31% 29.44 in 10.0 mi NNW 6.9 mph - N/A   Clear
2:54 PM 73.4 °F 41.0 °F 31% 29.43 in 10.0 mi North 4.6 mph - N/A   Clear
3:14 PM 73.4 °F 40.8 °F 31% 29.42 in 10.0 mi NNE 3.5 mph - N/A   Clear
3:34 PM 73.4 °F 41.0 °F 31% 29.43 in 10.0 mi Calm Calm - N/A   Clear
3:54 PM 73.6 °F 41.0 °F 31% 29.42 in 10.0 mi Calm Calm - N/A   Clear
4:14 PM 73.6 °F 41.0 °F 31% 29.42 in 10.0 mi Calm Calm - N/A   Scattered Clouds
4:34 PM 73.6 °F 41.0 °F 31% 29.40 in 10.0 mi NE 4.6 mph - N/A   Scattered Clouds
4:54 PM 73.4 °F 41.2 °F 31% 29.39 in 10.0 mi ENE 4.6 mph - N/A   Clear
5:14 PM 73.4 °F 41.2 °F 31% 29.39 in 10.0 mi Calm Calm - N/A   Clear
5:34 PM 72.5 °F 41.0 °F 32% 29.39 in 10.0 mi Calm Calm - N/A   Scattered Clouds
5:54 PM 71.6 °F 41.2 °F 33% 29.39 in 10.0 mi Calm Calm - N/A   Mostly Cloudy
6:14 PM 69.6 °F 40.8 °F 35% 29.39 in 10.0 mi West 3.5 mph - N/A   Mostly Cloudy
6:34 PM 66.7 °F 41.0 °F 39% 29.39 in 10.0 mi West 5.8 mph - N/A   Scattered Clouds
6:54 PM 63.1 °F 40.8 °F 44% 29.39 in 10.0 mi WSW 6.9 mph - N/A   Scattered Clouds
7:14 PM 63.7 °F 40.8 °F 43% 29.40 in 10.0 mi WSW 6.9 mph - N/A   Scattered Clouds
7:34 PM 63.7 °F 41.9 °F 45% 29.40 in 10.0 mi WSW 5.8 mph - N/A   Mostly Cloudy
7:54 PM 62.2 °F 42.3 °F 48% 29.40 in 10.0 mi West 4.6 mph - N/A   Scattered Clouds
8:14 PM 61.9 °F 42.4 °F 49% 29.40 in 10.0 mi West 4.6 mph - N/A   Clear
8:34 PM 59.0 °F 42.1 °F 53% 29.39 in 10.0 mi WSW 4.6 mph - N/A   Clear
8:53 PM 57.4 °F 42.4 °F 57% 29.38 in 10.0 mi WSW 4.6 mph - N/A   Clear
9:14 PM 57.4 °F 42.3 °F 57% 29.37 in 10.0 mi Calm Calm - N/A   Clear
9:34 PM 55.4 °F 41.7 °F 60% 29.36 in 10.0 mi SSE 5.8 mph - N/A   Clear
9:53 PM 55.9 °F 41.7 °F 59% 29.38 in 10.0 mi SSW 5.8 mph - N/A   Clear
10:14 PM 57.2 °F 41.9 °F 57% 29.38 in 10.0 mi SSW 5.8 mph - N/A   Clear
10:34 PM 57.7 °F 42.1 °F 56% 29.37 in 10.0 mi South 6.9 mph - N/A   Clear
10:54 PM 57.6 °F 42.1 °F 56% 29.36 in 10.0 mi South 6.9 mph - N/A   Clear
11:14 PM 57.6 °F 42.1 °F 56% 29.35 in 10.0 mi South 6.9 mph - N/A   Clear
11:33 PM 57.6 °F 42.1 °F 56% 29.35 in 10.0 mi South 8.1 mph - N/A   Clear
11:54 PM 56.7 °F 41.9 °F 58% 29.34 in 10.0 mi South 8.1 mph - N/A   Clear